Location: Monroe
(41.9160°N, 83.3980°W)
Time: 11:48:57
(UTC-04:00)

ISS - Visible Passes

Search period start: 23 October 2014 00:00
Search period end: 02 November 2014 00:00
Orbit: 413 x 416 km, 51.6° (Epoch: 23 October)

Date Brightness Start Highest point End Pass type
(mag) Time Alt. Az. Time Alt. Az. Time Alt. Az.
23 Oct -3.1 20:27:56 10° NW 20:30:55 69° WNW 20:30:55 69° WNW visible
24 Oct -3.1 19:38:49 10° NW 19:42:07 57° NNE 19:44:05 22° ESE visible
24 Oct -0.1 21:16:12 10° W 21:16:58 14° W 21:16:58 14° W visible
25 Oct -1.7 20:26:31 10° WNW 20:29:30 30° SW 20:30:15 27° SSW visible
26 Oct -2.6 19:37:06 10° WNW 19:40:23 55° SW 19:43:38 10° SE visible
27 Oct -0.2 20:26:09 10° WSW 20:27:22 12° SW 20:28:36 10° SSW visible
28 Oct -0.6 19:35:44 10° W 19:38:17 20° SW 19:40:49 10° S visible
